Location: Unspecified
(0.0000°N, 0.0000°E)
Time: 02:47:31
(UTC+01:00)

Cosmos 1933 - Visible Passes

Search period start: 25 November 2017 00:00
Search period end: 05 December 2017 00:00
Orbit: 547 x 566 km, 82.5° (Epoch: 24 November)

Date Brightness Start Highest point End Pass type
(mag) Time Alt. Az. Time Alt. Az. Time Alt. Az.
25 Nov 3.4 05:27:56 39° NW 05:29:08 56° W 05:33:08 10° S visible
26 Nov 3.6 05:26:38 44° W 05:26:52 45° W 05:30:46 10° SSW visible
27 Nov 4.1 05:25:15 34° WSW 05:25:15 34° WSW 05:28:21 10° SSW visible
28 Nov 4.8 05:23:48 23° SW 05:23:48 23° SW 05:25:54 10° SSW visible
29 Nov 5.4 05:22:18 16° SW 05:22:18 16° SW 05:23:23 10° SSW visible
30 Nov 5.8 05:20:43 10° SW 05:20:43 10° SW 05:20:49 10° SW visible
